Webcams

EDPO Webcam Blick Richtung Osten (local time)

Webcam-2

Info zum Bild:

  • Blick zum Kloster Mariahilf, Entfernung ca. 3km
  • Blick zur Kirche St. Johannes, Entfernung ca. 1km
  • Blick zu den beiden Windrädern, Entfernung ca. 6km

EDPO Webcam Blick Richtung Westen (local time)

Webcam-1

Info zum Bild:

  • Blick zum Tyrolsberg, Entfernung ca. 3,5km

Dillberg Webcam Blick Richtung Osten zu EDPO (local time)

Webcam-1

Info zum Bild:

  • Blick vom Dillberg Richtung Neumarkt, Höhe 555ft über EDPO

Dillberg Webcam Blick Richtung Westen zum Sender (local time)

Webcam-1

Info zum Bild:

  • Blick vom Dillberg Sender, Höhe bis Spitze 1322ft über EDPO
  • 600m Entfernung / Sichtweite von CAM zum Dillberg Sender

Wolfstein Webcam Blick Richtung Osten nach Neumarkt


Snapshot

Info zum Bild:

Nürnberger Fernsehturm (Rundum CAM)


METAR Informationen der nächstgelegenen Flughäfen


EDDN / Flughafen Nürnberg „Albrecht Dürer“

EDDN 240120Z 02004KT 9999 FEW045 SCT100 BKN130 14/13 Q1018

ETIC / Fliegerhorst Grafenwöhr AAF

ETIC 240056Z AUTO 00000KT 9999 SCT110 OVC150 16/14 A3008 RMK AO2 SLP178 T01550137 $

ETIH / Fliegerhorst Hohenfels AAF

ETIH 240056Z AUTO 32003KT 9999 FEW085 14/14 A3007 RMK AO2 SLP169 T01390137 $